Central Park, NY

12:59 PM EDT on April 30, 2017 (GMT -0400)
Central Park

Weather History for KNYC - February, 2013

Change the Weather History Date:

Friday, February 22, 2013

  Actual Average Record
Temperature  
Mean Temperature 32 °F 36 °F  
Max Temperature 38 °F 43 °F 69 °F (1997)
Min Temperature 25 °F 30 °F 8 °F (1963)
Degree Days  
Heating Degree Days 33 28  
Month to date heating degree days 720 666  
Since 1 July heating degree days 3229 3355  
Cooling Degree Days 0 0  
Month to date cooling degree days 0 0  
Year to date cooling degree days 0 0  
Moisture  
Dew Point 21 °F    
Average Humidity 59    
Maximum Humidity 70    
Minimum Humidity 48    
Precipitation  
Precipitation 0.00 in 0.11 in 2.39 in (1878)
Month to date precipitation 2.28 2.38  
Year to date precipitation 5.04 6.03  
Snow  
Snow 0.00 in 0.30 in 6.00 in (2008)
Month to date snowfall 12.2 7.4  
Since 1 July snowfall 18.8 19.5  
Snow Depth 0.00 in    
Sea Level Pressure  
Sea Level Pressure 30.33 in    
Wind  
Wind Speed 7 mph (ENE)    
Max Wind Speed 16 mph    
Max Gust Speed 24 mph    
Visibility 10 miles    
Events      
T = Trace of Precipitation, MM = Missing Value Source: NWS Daily Summary

Daily Weather History Graph

Daily Weather History Graph

Search for Another Location

Airport or City:

Trip Planner

Search our weather history database for the weather conditions in past years. The results will help you decide how hot, cold, wet, or windy it might be!

Date:

Astronomy

Feb. 22, 2013 Rise Set
Actual Time 6:39 AM EST 5:39 PM EST
Civil Twilight 6:12 AM EST 6:07 PM EST
Nautical Twilight 5:40 AM EST 6:38 PM EST
Astronomical Twilight 5:08 AM EST 7:10 PM EST
Moon 2:47 PM EST (2/22) 4:24 AM EST (2/22)
Length of Visible Light 11h 54m
Length of Day
10h 59m
Waxing Gibbous, 90% of the Moon is Illuminated
Feb 22
Waxing Gibbous
Feb 25
Full
Mar 4
Last Quarter
Mar 11
New
Mar 19
First Quarter

Hourly Weather History & Observations

Time (EST) Temp. Windchill Dew Point Humidity Pressure Visibility Wind Dir Wind Speed Gust Speed Precip Events Conditions
12:51 AM 25.0 °F - 12.9 °F 60% 30.27 in 10.0 mi North - - N/A   Clear
1:51 AM 25.0 °F 15.5 °F 14.0 °F 63% 30.28 in 10.0 mi NNE 9.2 mph - N/A   Clear
2:51 AM 26.1 °F 20.5 °F 15.1 °F 63% 30.31 in 10.0 mi North 4.6 mph - N/A   Clear
3:51 AM 26.1 °F 16.2 °F 16.0 °F 66% 30.31 in 10.0 mi North 10.4 mph - N/A   Clear
4:51 AM 27.0 °F 20.5 °F 17.1 °F 66% 30.33 in 10.0 mi Variable 5.8 mph 19.6 mph N/A   Clear
5:51 AM 27.0 °F 18.0 °F 17.1 °F 66% 30.36 in 10.0 mi NE 9.2 mph - N/A   Clear
6:51 AM 27.0 °F 20.5 °F 18.0 °F 69% 30.38 in 10.0 mi NNE 5.8 mph - N/A   Clear
7:51 AM 28.0 °F 18.1 °F 17.1 °F 63% 30.39 in 10.0 mi NE 11.5 mph 17.3 mph N/A   Clear
8:51 AM 28.9 °F 19.8 °F 17.1 °F 61% 30.39 in 10.0 mi NE 10.4 mph - N/A   Clear
9:51 AM 30.9 °F 27.5 °F 18.0 °F 59% 30.39 in 10.0 mi Variable 3.5 mph - N/A   Clear
10:51 AM 33.1 °F 26.1 °F 18.0 °F 54% 30.39 in 10.0 mi ENE 8.1 mph - N/A   Clear
11:51 AM 34.0 °F 25.5 °F 19.0 °F 54% 30.38 in 10.0 mi ENE 11.5 mph - N/A   Clear
12:51 PM 36.0 °F 29.6 °F 19.9 °F 52% 30.35 in 10.0 mi ENE 8.1 mph - N/A   Clear
1:51 PM 37.0 °F 31.6 °F 19.9 °F 50% 30.32 in 10.0 mi ESE 6.9 mph - N/A   Clear
2:51 PM 37.0 °F 33.3 °F 19.9 °F 50% 30.31 in 10.0 mi Variable 4.6 mph - N/A   Clear
3:51 PM 37.0 °F 33.3 °F 21.9 °F 54% 30.32 in 10.0 mi Variable 4.6 mph - N/A   Clear
4:51 PM 36.0 °F 29.0 °F 23.0 °F 59% 30.32 in 10.0 mi South 9.2 mph - N/A   Overcast
5:51 PM 36.0 °F 33.3 °F 25.0 °F 64% 30.33 in 10.0 mi Variable 3.5 mph - N/A   Overcast
6:51 PM 36.0 °F 32.1 °F 26.1 °F 67% 30.32 in 10.0 mi Variable 4.6 mph - N/A   Overcast
7:51 PM 37.0 °F 32.4 °F 27.0 °F 67% 30.32 in 10.0 mi SE 5.8 mph - N/A   Overcast
8:51 PM 37.0 °F 31.6 °F 28.0 °F 70% 30.31 in 10.0 mi Variable 6.9 mph - N/A   Overcast
9:51 PM 37.0 °F 31.0 °F 28.0 °F 70% 30.30 in 10.0 mi SSE 8.1 mph - N/A   Overcast
10:51 PM 37.0 °F 34.5 °F 28.9 °F 73% 30.29 in 10.0 mi Variable 3.5 mph - N/A   Overcast
11:51 PM 37.0 °F 31.6 °F 30.0 °F 76% 30.27 in 10.0 mi Variable 6.9 mph - N/A   Overcast